Fergus Falls, MN

3:10 AM CST on November 21, 2019 (GMT -0600)
Fergus Falls Municipal-Mickelson

Weather History for KFFM - September, 2019

Change the Weather History Date:

Friday, September 27, 2019

  Actual Average Record
Temperature  
Mean Temperature 49 °F -  
Max Temperature 57 °F 66 °F 90 °F (1952)
Min Temperature 41 °F 41 °F 28 °F (1967)
Degree Days  
Heating Degree Days 16    
Moisture  
Dew Point 43 °F    
Average Humidity 77    
Maximum Humidity 88    
Minimum Humidity 66    
Precipitation  
Precipitation 0.00 in - - ()
Sea Level Pressure  
Sea Level Pressure 29.75 in    
Wind  
Wind Speed 7 mph ()    
Max Wind Speed 18 mph    
Max Gust Speed 26 mph    
Visibility 10.0 miles    
Events      
Averages and records for this station are not official NWS values.
T = Trace of Precipitation, MM = Missing Value Source: Averaged Metar Reports

Daily Weather History Graph

Daily Weather History Graph

Search for Another Location

Airport or City:

Astronomy

Sep. 27, 2019 Rise Set
Actual Time 7:17 AM CDT 7:12 PM CDT
Civil Twilight 6:47 AM CDT 7:42 PM CDT
Nautical Twilight 6:12 AM CDT 8:17 PM CDT
Astronomical Twilight 5:36 AM CDT 8:53 PM CDT
Moon 5:30 AM CDT (9/27) 7:10 PM CDT (9/27)
Length of Visible Light 12h 54m
Length of Day
11h 55m
Waning Crescent, 2% of the Moon is Illuminated
Sep 27
Waning Crescent
Sep 28
New
Oct 5
First Quarter
Oct 13
Full
Oct 21
Last Quarter

Hourly Weather History & Observations

Time (CDT) Temp. Windchill Dew Point Humidity Pressure Visibility Wind Dir Wind Speed Gust Speed Precip Events Conditions
12:18 AM 57.2 °F - 46.4 °F 67% 29.52 in 10.0 mi SSW 9.2 mph - N/A   Scattered Clouds
12:36 AM 57.2 °F - 48.2 °F 72% 29.52 in 10.0 mi SW 9.2 mph - N/A   Scattered Clouds
12:56 AM 57.2 °F - 48.2 °F 72% 29.52 in 10.0 mi SSW 9.2 mph - N/A   Scattered Clouds
1:15 AM 57.2 °F - 48.2 °F 72% 29.52 in 10.0 mi SW 8.1 mph - N/A   Scattered Clouds
1:16 AM 57.2 °F - 48.2 °F 72% 29.52 in 10.0 mi SW 8.1 mph - N/A   Scattered Clouds
1:35 AM 57.2 °F - 48.2 °F 72% 29.54 in 10.0 mi West 9.2 mph - N/A   Scattered Clouds
1:39 AM 57.2 °F - 48.2 °F 72% 29.54 in 10.0 mi WSW 9.2 mph - N/A   Scattered Clouds
1:57 AM 57.2 °F - 48.2 °F 72% 29.51 in 10.0 mi WSW 6.9 mph - N/A   Scattered Clouds
2:16 AM 57.2 °F - 48.2 °F 72% 29.53 in 10.0 mi West 11.5 mph - N/A   Scattered Clouds
2:35 AM 57.2 °F - 48.2 °F 72% 29.51 in 10.0 mi WNW 8.1 mph - N/A   Mostly Cloudy
2:36 AM 57.2 °F - 48.2 °F 72% 29.51 in 10.0 mi WNW 8.1 mph - N/A   Mostly Cloudy
2:55 AM 57.2 °F - 48.2 °F 72% 29.51 in 10.0 mi WNW 6.9 mph - N/A   Mostly Cloudy
2:56 AM 57.2 °F - 48.2 °F 72% 29.51 in 10.0 mi WNW 6.9 mph - N/A   Mostly Cloudy
3:19 AM 55.4 °F - 48.2 °F 77% 29.51 in 10.0 mi WNW 6.9 mph - N/A   Scattered Clouds
3:36 AM 55.4 °F - 48.2 °F 77% 29.52 in 10.0 mi WNW 5.8 mph - N/A   Scattered Clouds
3:56 AM 53.6 °F - 48.2 °F 82% 29.52 in 10.0 mi WNW 3.5 mph - N/A   Clear
4:15 AM 53.6 °F - 48.2 °F 82% 29.54 in 10.0 mi West 6.9 mph - N/A   Clear
4:16 AM 53.6 °F - 48.2 °F 82% 29.54 in 10.0 mi West 5.8 mph - N/A   Clear
4:35 AM 53.6 °F - 48.2 °F 82% 29.55 in 10.0 mi West 6.9 mph - N/A   Clear
4:57 AM 53.6 °F - 48.2 °F 82% 29.56 in 10.0 mi West 6.9 mph - N/A   Clear
5:16 AM 53.6 °F - 48.2 °F 82% 29.56 in 10.0 mi NW 5.8 mph - N/A   Clear
5:35 AM 53.6 °F - 48.2 °F 82% 29.57 in 10.0 mi WNW 6.9 mph - N/A   Clear
5:36 AM 53.6 °F - 48.2 °F 82% 29.56 in 10.0 mi NW 5.8 mph - N/A   Clear
5:55 AM 51.8 °F - 48.2 °F 88% 29.58 in 10.0 mi NW 6.9 mph - N/A   Clear
6:16 AM 51.8 °F - 48.2 °F 88% 29.58 in 10.0 mi NW 5.8 mph - N/A   Clear
6:35 AM 51.8 °F - 48.2 °F 88% 29.59 in 10.0 mi NW 6.9 mph - N/A   Clear
6:36 AM 51.8 °F - 48.2 °F 88% 29.59 in 10.0 mi NW 6.9 mph - N/A   Clear
6:55 AM 51.8 °F - 48.2 °F 88% 29.60 in 10.0 mi NW 6.9 mph - N/A   Scattered Clouds
6:56 AM 51.8 °F - 48.2 °F 88% 29.61 in 10.0 mi NW 6.9 mph - N/A   Scattered Clouds
7:15 AM 51.8 °F - 48.2 °F 88% 29.61 in 10.0 mi NNW 10.4 mph - N/A   Mostly Cloudy
7:19 AM 51.8 °F - 48.2 °F 88% 29.62 in 10.0 mi NNW 9.2 mph - N/A   Overcast
7:38 AM 51.8 °F - 48.2 °F 88% 29.62 in 10.0 mi NNW 8.1 mph - N/A   Overcast
7:55 AM 51.8 °F - 46.4 °F 82% 29.63 in 10.0 mi NNW 13.8 mph 18.4 mph N/A   Overcast
8:15 AM 51.8 °F - 46.4 °F 82% 29.65 in 10.0 mi NNW 10.4 mph - N/A   Overcast
8:16 AM 51.8 °F - 46.4 °F 82% 29.65 in 10.0 mi NNW 9.2 mph - N/A   Overcast
8:35 AM 50.0 °F - 44.6 °F 82% 29.66 in 10.0 mi NNW 17.3 mph 20.7 mph N/A   Overcast
8:36 AM 48.2 °F - 44.6 °F 87% 29.66 in 10.0 mi NW 18.4 mph - N/A   Mostly Cloudy
8:58 AM 46.4 °F 39.5 °F 42.8 °F 87% 29.68 in 10.0 mi North 17.3 mph 24.2 mph N/A   Mostly Cloudy
9:16 AM 46.4 °F 40.4 °F 42.8 °F 87% 29.70 in 10.0 mi NNW 13.8 mph 26.5 mph N/A   Overcast
9:35 AM 46.4 °F 40.4 °F 42.8 °F 87% 29.71 in 10.0 mi NNW 13.8 mph - N/A   Overcast
9:36 AM 46.4 °F 40.1 °F 42.8 °F 87% 29.70 in 10.0 mi NNW 15.0 mph - N/A   Overcast
9:55 AM 46.4 °F 40.4 °F 42.8 °F 87% 29.72 in 10.0 mi NNW 13.8 mph 23.0 mph N/A   Overcast
9:56 AM 46.4 °F 40.7 °F 42.8 °F 87% 29.72 in 10.0 mi NNW 12.7 mph 23.0 mph N/A   Overcast
10:20 AM 48.2 °F - 42.8 °F 82% 29.73 in 10.0 mi NNW 11.5 mph 19.6 mph N/A   Overcast
10:37 AM 48.2 °F - 42.8 °F 82% 29.73 in 10.0 mi North 13.8 mph 23.0 mph N/A   Overcast
12:36 PM 50.0 °F - 42.8 °F 76% 29.77 in 10.0 mi NNW 12.7 mph 18.4 mph N/A   Overcast
12:55 PM 50.0 °F - 42.8 °F 76% 29.78 in 10.0 mi NNW 12.7 mph 18.4 mph N/A   Overcast
12:56 PM 50.0 °F - 42.8 °F 76% 29.78 in 10.0 mi NNW 12.7 mph 18.4 mph N/A   Overcast
1:15 PM 50.0 °F - 42.8 °F 76% 29.78 in 10.0 mi NNW 10.4 mph - N/A   Overcast
1:19 PM 51.8 °F - 42.8 °F 71% 29.78 in 10.0 mi NNW 12.7 mph 17.3 mph N/A   Overcast
1:55 PM 50.0 °F - 42.8 °F 76% 29.80 in 10.0 mi NNW 11.5 mph 17.3 mph N/A   Overcast
2:15 PM 50.0 °F - 42.8 °F 76% 29.80 in 10.0 mi NNW 13.8 mph 18.4 mph N/A   Overcast
2:16 PM 50.0 °F - 42.8 °F 76% 29.80 in 10.0 mi NNW 13.8 mph 18.4 mph N/A   Overcast
2:35 PM 51.8 °F - 42.8 °F 71% 29.81 in 10.0 mi NW 11.5 mph - N/A   Mostly Cloudy
2:36 PM 51.8 °F - 42.8 °F 71% 29.81 in 10.0 mi NNW 11.5 mph - N/A   Mostly Cloudy
2:59 PM 51.8 °F - 42.8 °F 71% 29.82 in 10.0 mi NNW 11.5 mph 17.3 mph N/A   Overcast
3:16 PM 50.0 °F - 41.0 °F 71% 29.83 in 10.0 mi NNW 13.8 mph - N/A   Overcast
3:36 PM 48.2 °F - 41.0 °F 76% 29.84 in 10.0 mi North 8.1 mph - N/A   Overcast
3:55 PM 48.2 °F - 41.0 °F 76% 29.84 in 10.0 mi North 6.9 mph - N/A   Overcast
4:15 PM 48.2 °F - 41.0 °F 76% 29.85 in 10.0 mi NNW 10.4 mph - N/A   Overcast
4:19 PM 50.0 °F - 41.0 °F 71% 29.85 in 10.0 mi NNW 10.4 mph - N/A   Overcast
4:37 PM 50.0 °F - 41.0 °F 71% 29.86 in 10.0 mi North 8.1 mph - N/A   Mostly Cloudy
4:56 PM 51.8 °F - 41.0 °F 67% 29.86 in 10.0 mi North 8.1 mph 17.3 mph N/A   Mostly Cloudy
5:15 PM 51.8 °F - 41.0 °F 67% 29.87 in 10.0 mi North 5.8 mph - N/A   Scattered Clouds
5:16 PM 51.8 °F - 41.0 °F 67% 29.86 in 10.0 mi North 6.9 mph - N/A   Scattered Clouds
5:35 PM 51.8 °F - 41.0 °F 67% 29.87 in 10.0 mi NNE 4.6 mph - N/A   Scattered Clouds
5:36 PM 51.8 °F - 41.0 °F 67% 29.87 in 10.0 mi NNE 4.6 mph - N/A   Scattered Clouds
5:59 PM 50.0 °F - 39.2 °F 66% 29.88 in 10.0 mi NNE 4.6 mph - N/A   Clear
6:16 PM 51.8 °F - 41.0 °F 67% 29.89 in 10.0 mi Calm Calm - N/A   Scattered Clouds
6:36 PM 51.8 °F - 41.0 °F 67% 29.90 in 10.0 mi Calm Calm - N/A   Mostly Cloudy
6:55 PM 51.8 °F - 41.0 °F 67% 29.91 in 10.0 mi Calm Calm - N/A   Mostly Cloudy
7:15 PM 48.2 °F - 41.0 °F 76% 29.93 in 10.0 mi Calm Calm - N/A   Scattered Clouds
7:19 PM 48.2 °F - 41.0 °F 76% 29.93 in 10.0 mi Calm Calm - N/A   Scattered Clouds
7:38 PM 46.4 °F 45.2 °F 39.2 °F 76% 29.94 in 10.0 mi North 3.5 mph - N/A   Clear
7:56 PM 48.2 °F - 39.2 °F 71% 29.94 in 10.0 mi Calm Calm - N/A   Clear
8:15 PM 46.4 °F - 39.2 °F 76% 29.95 in 10.0 mi Calm Calm - N/A   Clear
8:16 PM 46.4 °F - 39.2 °F 76% 29.95 in 10.0 mi Calm Calm - N/A   Clear
8:35 PM 46.4 °F - 37.4 °F 71% 29.96 in 10.0 mi Calm Calm - N/A   Clear
8:36 PM 46.4 °F - 37.4 °F 71% 29.96 in 10.0 mi Calm Calm - N/A   Clear
8:58 PM 44.6 °F - 37.4 °F 76% 29.97 in 10.0 mi Calm Calm - N/A   Clear
9:16 PM 44.6 °F - 37.4 °F 76% 29.98 in 10.0 mi Calm Calm - N/A   Clear
9:35 PM 42.8 °F - 37.4 °F 81% 29.98 in 10.0 mi Calm Calm - N/A   Clear
9:36 PM 42.8 °F - 37.4 °F 81% 29.98 in 10.0 mi Calm Calm - N/A   Clear
9:55 PM 42.8 °F 41.1 °F 37.4 °F 81% 29.98 in 10.0 mi North 3.5 mph - N/A   Clear
9:56 PM 41.0 °F 39.0 °F 37.4 °F 87% 29.98 in 10.0 mi North 3.5 mph - N/A   Clear
10:15 PM 42.8 °F - 37.4 °F 81% 29.99 in 10.0 mi Calm Calm - N/A   Clear
10:19 PM 42.8 °F - 37.4 °F 81% 29.99 in 10.0 mi Calm Calm - N/A   Clear
10:37 PM 42.8 °F 40.1 °F 35.6 °F 76% 30.00 in 10.0 mi North 4.6 mph - N/A   Clear
10:56 PM 42.8 °F 40.1 °F 35.6 °F 76% 30.01 in 10.0 mi North 4.6 mph - N/A   Clear
11:15 PM 42.8 °F 40.1 °F 35.6 °F 76% 30.01 in 10.0 mi NNE 4.6 mph - N/A   Clear
11:35 PM 42.8 °F - 35.6 °F 76% 30.02 in 10.0 mi Calm Calm - N/A   Clear
11:36 PM 42.8 °F 41.1 °F 35.6 °F 76% 30.02 in 10.0 mi NE 3.5 mph - N/A   Clear
11:58 PM 42.8 °F 41.1 °F 35.6 °F 76% 30.03 in 10.0 mi NNE 3.5 mph - N/A   Clear